Terminal Aerodrome Forecast
Issued by NWS

Home | Current Version | Previous Version | Text Only | Print | Product List | Glossary On
Versions: 1 2 3 4 5 6 7 8 9 10 11 12 13
000
FTUS43 KLSX 222321
TAFUIN
TAF
KUIN 222321Z 2300/2324 07010KT P6SM BKN090
     FM231800 04010G17KT P6SM BKN140=

USA.gov is the U.S. government's official web portal to all federal, state and local government web resources and services.